PGT26NH LTFJ-LTAJ

Flight info

Callsign PGT26NH
Flight time 1h 20m
Altitude 39000
Route VICEN T57 VEVUD UT341 BAG UA17 BOYAT
Aircraft A320/M-SDE3FGHIRWY/LB1

Departure

Time 2026-04-25 08:21
Airport Istanbul Sabiha Gökçen International Airport (LTFJ)

Arrival

Time 2026-04-25 09:41
Airport Gaziantep Oğuzeli International Airport (LTAJ)
Time Latitude Longitude Altitude Speed Heading
2026-04-25 07:44 40.90783 29.32026 311 ft 0 kts 334°
2026-04-25 07:57 40.90782 29.32026 311 ft 0 kts 334°
2026-04-25 08:11 40.90762 29.32039 310 ft 4 kts 334°
2026-04-25 08:11 40.90738 29.32055 311 ft 4 kts 333°
2026-04-25 08:12 40.90714 29.32072 311 ft 4 kts 325°
2026-04-25 08:12 40.90696 29.32094 309 ft 4 kts 278°
2026-04-25 08:12 40.90696 29.32105 308 ft 0 kts 244°
2026-04-25 08:15 40.90690 29.32091 308 ft 6 kts 244°
2026-04-25 08:15 40.90675 29.32049 310 ft 5 kts 244°
2026-04-25 08:15 40.90644 29.31966 311 ft 14 kts 244°
2026-04-25 08:15 40.90572 29.31943 310 ft 12 kts 157°
2026-04-25 08:16 40.90503 29.31988 311 ft 10 kts 155°
2026-04-25 08:16 40.90437 29.31930 311 ft 15 kts 244°
2026-04-25 08:16 40.90381 29.31778 311 ft 21 kts 244°
2026-04-25 08:16 40.90308 29.31582 311 ft 26 kts 244°
2026-04-25 08:17 40.90228 29.31363 311 ft 27 kts 244°
2026-04-25 08:17 40.90141 29.31132 311 ft 29 kts 246°
2026-04-25 08:17 40.90055 29.30890 311 ft 29 kts 244°
2026-04-25 08:17 40.89966 29.30648 311 ft 29 kts 244°
2026-04-25 08:18 40.89876 29.30405 310 ft 31 kts 244°
2026-04-25 08:18 40.89789 29.30173 309 ft 29 kts 244°
2026-04-25 08:18 40.89704 29.29938 308 ft 28 kts 244°
2026-04-25 08:18 40.89615 29.29695 305 ft 31 kts 245°
2026-04-25 08:19 40.89518 29.29433 303 ft 32 kts 244°
2026-04-25 08:19 40.89456 29.29280 303 ft 15 kts 225°
2026-04-25 08:19 40.89397 29.29252 303 ft 8 kts 175°
2026-04-25 08:19 40.89353 29.29280 304 ft 7 kts 155°
2026-04-25 08:20 40.89306 29.29309 304 ft 8 kts 155°
2026-04-25 08:20 40.89284 29.29361 301 ft 7 kts 84°
2026-04-25 08:20 40.89345 29.29538 306 ft 49 kts 64°
2026-04-25 08:20 40.89601 29.30232 309 ft 115 kts 64°
2026-04-25 08:21 40.90031 29.31400 313 ft 166 kts 64°
2026-04-25 08:21 40.90557 29.32827 866 ft 169 kts 64°
2026-04-25 08:21 40.91060 29.34197 1886 ft 162 kts 64°
2026-04-25 08:21 40.91557 29.35553 2605 ft 172 kts 65°
2026-04-25 08:22 40.92107 29.37057 2998 ft 193 kts 65°
2026-04-25 08:22 40.92727 29.38746 3458 ft 213 kts 65°
2026-04-25 08:22 40.93366 29.40623 3965 ft 236 kts 75°
2026-04-25 08:22 40.93279 29.42825 4710 ft 251 kts 111°
2026-04-25 08:23 40.92141 29.44633 5587 ft 265 kts 145°
2026-04-25 08:23 40.90495 29.45776 6539 ft 271 kts 156°
2026-04-25 08:23 40.88714 29.46664 6923 ft 274 kts 160°
2026-04-25 08:23 40.86916 29.47502 7053 ft 274 kts 159°
2026-04-25 08:24 40.85133 29.48393 7077 ft 274 kts 157°
2026-04-25 08:24 40.83374 29.49354 7080 ft 274 kts 155°
2026-04-25 08:24 40.81637 29.50377 7528 ft 280 kts 155°
2026-04-25 08:24 40.79875 29.51460 8579 ft 280 kts 154°
2026-04-25 08:25 40.78201 29.52788 9508 ft 283 kts 139°
2026-04-25 08:25 40.76893 29.54745 10363 ft 288 kts 121°
2026-04-25 08:25 40.76094 29.57171 11130 ft 293 kts 105°
2026-04-25 08:25 40.75551 29.59871 11449 ft 316 kts 104°
2026-04-25 08:26 40.74979 29.62757 11920 ft 331 kts 104°
2026-04-25 08:26 40.74386 29.65727 12633 ft 338 kts 104°
2026-04-25 08:26 40.73783 29.68751 13369 ft 344 kts 104°
2026-04-25 08:26 40.73406 29.71896 13924 ft 350 kts 93°
2026-04-25 08:27 40.73340 29.75111 14053 ft 351 kts 91°
2026-04-25 08:27 40.73293 29.78326 14078 ft 351 kts 91°
2026-04-25 08:27 40.73248 29.81539 14079 ft 350 kts 91°
2026-04-25 08:27 40.73197 29.84749 14080 ft 350 kts 91°
2026-04-25 08:28 40.73138 29.87959 14081 ft 350 kts 91°
2026-04-25 08:28 40.73075 29.91167 14082 ft 350 kts 91°
2026-04-25 08:28 40.73009 29.94379 14084 ft 350 kts 91°
2026-04-25 08:28 40.72945 29.97586 14085 ft 350 kts 91°
2026-04-25 08:29 40.72882 30.00793 14080 ft 350 kts 91°
2026-04-25 08:29 40.72819 30.04003 14083 ft 350 kts 92°
2026-04-25 08:29 40.72537 30.07183 14082 ft 350 kts 103°
2026-04-25 08:29 40.71793 30.10268 14555 ft 355 kts 110°
2026-04-25 08:30 40.70969 30.13332 15357 ft 355 kts 109°
2026-04-25 08:30 40.70156 30.16414 16104 ft 357 kts 109°
2026-04-25 08:30 40.69345 30.19518 16831 ft 360 kts 109°
2026-04-25 08:30 40.68539 30.22605 17556 ft 362 kts 109°
2026-04-25 08:31 40.67714 30.25755 18265 ft 365 kts 109°
2026-04-25 08:31 40.66826 30.28907 18851 ft 369 kts 115°
2026-04-25 08:31 40.65546 30.31846 19432 ft 372 kts 126°
2026-04-25 08:31 40.63957 30.34564 20018 ft 375 kts 128°
2026-04-25 08:32 40.62348 30.37287 20604 ft 378 kts 127°
2026-04-25 08:32 40.60729 30.40034 21170 ft 381 kts 127°
2026-04-25 08:32 40.59100 30.42803 21734 ft 384 kts 127°
2026-04-25 08:32 40.57458 30.45592 22278 ft 387 kts 127°
2026-04-25 08:33 40.55804 30.48402 22837 ft 390 kts 127°
2026-04-25 08:33 40.54258 30.51342 23375 ft 392 kts 118°
2026-04-25 08:33 40.53123 30.54611 23856 ft 395 kts 108°
2026-04-25 08:33 40.52419 30.58106 24298 ft 397 kts 102°
2026-04-25 08:34 40.51804 30.61647 24735 ft 399 kts 103°
2026-04-25 08:34 40.51172 30.65222 25185 ft 402 kts 103°
2026-04-25 08:34 40.50531 30.68809 25615 ft 405 kts 103°
2026-04-25 08:34 40.49881 30.72409 26026 ft 407 kts 103°
2026-04-25 08:35 40.49182 30.76034 26436 ft 410 kts 105°
2026-04-25 08:35 40.48382 30.79640 26864 ft 412 kts 107°
2026-04-25 08:35 40.47512 30.83243 27280 ft 415 kts 108°
2026-04-25 08:35 40.46610 30.86858 27687 ft 418 kts 108°
2026-04-25 08:36 40.45700 30.90493 28092 ft 420 kts 108°
2026-04-25 08:36 40.44796 30.94154 28493 ft 423 kts 108°
2026-04-25 08:36 40.43899 30.97850 28885 ft 425 kts 107°
2026-04-25 08:36 40.43013 31.01556 29284 ft 428 kts 107°
2026-04-25 08:37 40.42124 31.05303 29671 ft 430 kts 107°
2026-04-25 08:37 40.41233 31.09063 30052 ft 433 kts 107°
2026-04-25 08:37 40.40348 31.12791 30378 ft 435 kts 107°
2026-04-25 08:37 40.39443 31.16587 30684 ft 437 kts 107°
2026-04-25 08:38 40.38531 31.20400 30986 ft 439 kts 107°
2026-04-25 08:38 40.37754 31.24283 31276 ft 441 kts 102°
2026-04-25 08:38 40.37115 31.28234 31572 ft 443 kts 101°
2026-04-25 08:38 40.36476 31.32178 31930 ft 443 kts 101°
2026-04-25 08:39 40.35836 31.36123 32343 ft 442 kts 101°
2026-04-25 08:39 40.35195 31.40060 32750 ft 441 kts 101°
2026-04-25 08:39 40.34549 31.43999 33139 ft 441 kts 101°
2026-04-25 08:39 40.33903 31.47933 33525 ft 440 kts 101°
2026-04-25 08:40 40.33259 31.51854 33914 ft 440 kts 101°
2026-04-25 08:40 40.32618 31.55771 34270 ft 439 kts 101°
2026-04-25 08:40 40.31976 31.59686 34585 ft 439 kts 101°
2026-04-25 08:40 40.31333 31.63602 34877 ft 440 kts 101°
2026-04-25 08:41 40.30686 31.67522 35153 ft 440 kts 102°
2026-04-25 08:41 40.30035 31.71446 35412 ft 441 kts 102°
2026-04-25 08:41 40.29379 31.75375 35669 ft 442 kts 102°
2026-04-25 08:41 40.28722 31.79308 35923 ft 442 kts 102°
2026-04-25 08:42 40.28066 31.83246 36177 ft 443 kts 102°
2026-04-25 08:42 40.27632 31.85851 36345 ft 443 kts 102°
2026-04-25 08:42 40.26974 31.89795 36598 ft 444 kts 103°
2026-04-25 08:42 40.26286 31.93734 36851 ft 444 kts 104°
2026-04-25 08:43 40.25505 31.97643 37108 ft 444 kts 106°
2026-04-25 08:43 40.24655 32.01524 37367 ft 443 kts 107°
2026-04-25 08:43 40.23770 32.05389 37615 ft 443 kts 107°
2026-04-25 08:43 40.22879 32.09250 37858 ft 443 kts 107°
2026-04-25 08:44 40.21999 32.13126 38090 ft 443 kts 107°
2026-04-25 08:44 40.21137 32.16999 38320 ft 444 kts 107°
2026-04-25 08:44 40.20286 32.20879 38539 ft 444 kts 107°
2026-04-25 08:44 40.19441 32.24763 38740 ft 444 kts 107°
2026-04-25 08:45 40.18598 32.28649 38901 ft 444 kts 107°
2026-04-25 08:45 40.17753 32.32536 39070 ft 445 kts 107°
2026-04-25 08:45 40.16904 32.36433 39107 ft 446 kts 107°
2026-04-25 08:46 40.15190 32.44233 39113 ft 447 kts 107°
2026-04-25 08:46 40.14617 32.46818 39110 ft 447 kts 107°
2026-04-25 08:47 40.14011 32.49455 38990 ft 446 kts 120°
2026-04-25 08:47 40.12359 32.52901 37892 ft 454 kts 136°
2026-04-25 08:47 40.09787 32.55262 36809 ft 456 kts 159°
2026-04-25 08:47 40.06702 32.56143 35821 ft 458 kts 181°
2026-04-25 08:48 40.03585 32.55407 34912 ft 459 kts 203°
2026-04-25 08:48 40.00793 32.53448 34577 ft 446 kts 204°
2026-04-25 08:48 39.97844 32.52374 34872 ft 442 kts 185°
2026-04-25 08:48 39.94799 32.52676 34871 ft 441 kts 163°
2026-04-25 08:49 39.92071 32.54449 35127 ft 441 kts 141°
2026-04-25 08:49 39.90020 32.57388 35426 ft 441 kts 123°
2026-04-25 08:49 39.88586 32.60919 35674 ft 442 kts 116°
2026-04-25 08:49 39.87268 32.64539 35928 ft 443 kts 116°
2026-04-25 08:50 39.85953 32.68164 36189 ft 443 kts 116°
2026-04-25 08:50 39.84641 32.71793 36450 ft 443 kts 116°
2026-04-25 08:50 39.83330 32.75434 36709 ft 443 kts 116°
2026-04-25 08:50 39.82026 32.79062 36956 ft 444 kts 116°
2026-04-25 08:51 39.80720 32.82701 37203 ft 444 kts 116°
2026-04-25 08:51 39.79409 32.86341 37428 ft 445 kts 116°
2026-04-25 08:51 39.78095 32.89982 37666 ft 445 kts 116°
2026-04-25 08:51 39.76777 32.93623 37889 ft 446 kts 116°
2026-04-25 08:52 39.75456 32.97268 38104 ft 446 kts 116°
2026-04-25 08:52 39.74132 33.00915 38323 ft 446 kts 117°
2026-04-25 08:52 39.72804 33.04573 38544 ft 447 kts 117°
2026-04-25 08:52 39.71479 33.08218 38738 ft 447 kts 117°
2026-04-25 08:53 39.70151 33.11876 38892 ft 448 kts 117°
2026-04-25 08:53 39.68819 33.15543 39055 ft 449 kts 117°
2026-04-25 08:53 39.67486 33.19200 39115 ft 449 kts 117°
2026-04-25 08:54 39.64813 33.26493 39123 ft 450 kts 117°
2026-04-25 08:54 39.62121 33.33831 39126 ft 451 kts 117°
2026-04-25 08:55 39.59425 33.41169 39122 ft 451 kts 117°
2026-04-25 08:55 39.56715 33.48504 39126 ft 451 kts 117°
2026-04-25 08:56 39.54003 33.55842 39124 ft 452 kts 117°
2026-04-25 08:56 39.51288 33.63188 39123 ft 452 kts 117°
2026-04-25 08:57 39.48558 33.70533 39126 ft 453 kts 118°
2026-04-25 08:57 39.45706 33.77807 39131 ft 451 kts 125°
2026-04-25 08:58 39.41848 33.84158 39139 ft 449 kts 132°
2026-04-25 08:58 39.37857 33.90361 39138 ft 449 kts 132°
2026-04-25 08:59 39.33862 33.96573 39134 ft 449 kts 132°
2026-04-25 08:59 39.29863 34.02781 39132 ft 450 kts 133°
2026-04-25 09:00 39.25858 34.08983 39130 ft 450 kts 133°
2026-04-25 09:00 39.21843 34.15176 39136 ft 450 kts 133°
2026-04-25 09:01 39.17816 34.21362 39130 ft 450 kts 133°
2026-04-25 09:01 39.13820 34.27526 39134 ft 452 kts 130°
2026-04-25 09:02 39.10404 34.34345 39131 ft 452 kts 131°
2026-04-25 09:02 39.06387 34.40532 39126 ft 450 kts 133°
2026-04-25 09:03 39.02345 34.46697 39131 ft 451 kts 133°
2026-04-25 09:03 38.98322 34.52902 39140 ft 451 kts 133°
2026-04-25 09:04 38.94308 34.59092 39123 ft 447 kts 133°
2026-04-25 09:04 38.92345 34.62121 39096 ft 436 kts 133°
2026-04-25 09:04 38.90387 34.65127 39133 ft 440 kts 133°
2026-04-25 09:05 38.86410 34.71212 39132 ft 449 kts 133°
2026-04-25 09:05 38.82382 34.77379 39128 ft 452 kts 133°
2026-04-25 09:06 38.78365 34.83527 39125 ft 453 kts 133°
2026-04-25 09:06 38.74301 34.89714 39117 ft 453 kts 133°
2026-04-25 09:07 38.70232 34.95878 39110 ft 454 kts 133°
2026-04-25 09:07 38.66160 35.02058 39103 ft 454 kts 133°
2026-04-25 09:08 38.62082 35.08242 39095 ft 455 kts 133°
2026-04-25 09:08 38.57994 35.14429 39091 ft 455 kts 133°
2026-04-25 09:09 38.53900 35.20601 39089 ft 456 kts 134°
2026-04-25 09:09 38.49785 35.26762 39084 ft 456 kts 134°
2026-04-25 09:10 38.46310 35.31836 39079 ft 456 kts 135°
2026-04-25 09:10 38.41409 35.38931 39074 ft 456 kts 135°
2026-04-25 09:11 38.35163 35.48033 38463 ft 456 kts 135°
2026-04-25 09:11 38.33070 35.51093 38189 ft 456 kts 135°
2026-04-25 09:11 38.30985 35.54135 37896 ft 456 kts 135°
2026-04-25 09:12 38.28895 35.57172 37615 ft 456 kts 135°
2026-04-25 09:12 38.26802 35.60200 37345 ft 455 kts 135°
2026-04-25 09:12 38.24709 35.63224 37074 ft 455 kts 135°
2026-04-25 09:12 38.22616 35.66250 36808 ft 456 kts 135°
2026-04-25 09:13 38.20520 35.69284 36538 ft 456 kts 136°
2026-04-25 09:13 38.18430 35.72311 36282 ft 455 kts 136°
2026-04-25 09:13 38.16347 35.75317 36022 ft 453 kts 136°
2026-04-25 09:13 38.14262 35.78321 35765 ft 451 kts 136°
2026-04-25 09:14 38.12194 35.81298 35516 ft 449 kts 136°
2026-04-25 09:14 38.10125 35.84272 35260 ft 447 kts 136°
2026-04-25 09:14 38.08073 35.87218 35007 ft 445 kts 136°
2026-04-25 09:14 38.06024 35.90159 34769 ft 444 kts 137°
2026-04-25 09:15 38.03983 35.93091 34529 ft 442 kts 137°
2026-04-25 09:15 38.01949 35.96010 34281 ft 441 kts 137°
2026-04-25 09:15 37.99920 35.98916 34036 ft 439 kts 137°
2026-04-25 09:15 37.97897 36.01809 33762 ft 437 kts 137°
2026-04-25 09:16 37.95883 36.04687 33475 ft 435 kts 137°
2026-04-25 09:16 37.93888 36.07542 32982 ft 429 kts 137°
2026-04-25 09:16 37.91920 36.10362 32462 ft 427 kts 137°
2026-04-25 09:16 37.89953 36.13175 31949 ft 424 kts 137°
2026-04-25 09:17 37.86056 36.18719 30960 ft 419 kts 137°
2026-04-25 09:17 37.84124 36.21463 30469 ft 416 kts 137°
2026-04-25 09:17 37.82200 36.24196 29963 ft 414 kts 137°
2026-04-25 09:18 37.80304 36.26897 29480 ft 409 kts 136°
2026-04-25 09:18 37.78430 36.29572 29030 ft 404 kts 136°
2026-04-25 09:18 37.76575 36.32223 28573 ft 399 kts 136°
2026-04-25 09:18 37.74748 36.34827 28124 ft 394 kts 136°
2026-04-25 09:19 37.72936 36.37402 27691 ft 390 kts 136°
2026-04-25 09:19 37.71140 36.39951 27263 ft 387 kts 136°
2026-04-25 09:19 37.69359 36.42474 26820 ft 383 kts 136°
2026-04-25 09:19 37.67595 36.44970 26386 ft 379 kts 136°
2026-04-25 09:20 37.65843 36.47446 25939 ft 377 kts 135°
2026-04-25 09:20 37.64123 36.49882 25492 ft 376 kts 135°
2026-04-25 09:20 37.62388 36.52337 25034 ft 374 kts 135°
2026-04-25 09:20 37.60657 36.54783 24549 ft 374 kts 135°
2026-04-25 09:21 37.58934 36.57212 24096 ft 373 kts 135°
2026-04-25 09:21 37.57204 36.59651 23609 ft 373 kts 134°
2026-04-25 09:21 37.55473 36.62090 23085 ft 371 kts 134°
2026-04-25 09:21 37.53757 36.64505 22625 ft 368 kts 135°
2026-04-25 09:22 37.52055 36.66897 22152 ft 366 kts 135°
2026-04-25 09:22 37.50355 36.69285 21693 ft 364 kts 135°
2026-04-25 09:22 37.48677 36.71658 21243 ft 362 kts 134°
2026-04-25 09:22 37.47018 36.74030 20802 ft 360 kts 134°
2026-04-25 09:23 37.45369 36.76398 20356 ft 358 kts 134°
2026-04-25 09:23 37.43730 36.78749 19917 ft 357 kts 134°
2026-04-25 09:23 37.42094 36.81089 19476 ft 356 kts 134°
2026-04-25 09:23 37.40465 36.83416 19042 ft 355 kts 134°
2026-04-25 09:24 37.39381 36.84963 18756 ft 354 kts 134°
2026-04-25 09:24 37.37754 36.87283 18316 ft 354 kts 134°
2026-04-25 09:24 37.36124 36.89605 17844 ft 354 kts 134°
2026-04-25 09:24 37.34501 36.91917 17416 ft 352 kts 134°
2026-04-25 09:25 37.32886 36.94214 16992 ft 350 kts 135°
2026-04-25 09:25 37.31279 36.96496 16578 ft 348 kts 135°
2026-04-25 09:25 37.29679 36.98766 16155 ft 347 kts 135°
2026-04-25 09:25 37.28085 37.01027 15754 ft 345 kts 135°
2026-04-25 09:26 37.26495 37.03281 15344 ft 344 kts 135°
2026-04-25 09:26 37.25408 37.04799 15077 ft 343 kts 136°
2026-04-25 09:26 37.23829 37.07041 14669 ft 343 kts 135°
2026-04-25 09:26 37.22280 37.09311 14259 ft 342 kts 135°
2026-04-25 09:27 37.20753 37.11583 13846 ft 340 kts 135°
2026-04-25 09:27 37.19229 37.13853 13404 ft 339 kts 134°
2026-04-25 09:27 37.17713 37.16104 13049 ft 336 kts 135°
2026-04-25 09:27 37.16199 37.18332 12617 ft 334 kts 135°
2026-04-25 09:28 37.14690 37.20540 12231 ft 332 kts 134°
2026-04-25 09:28 37.13193 37.22727 11830 ft 330 kts 134°
2026-04-25 09:28 37.11705 37.24887 11385 ft 328 kts 135°
2026-04-25 09:28 37.10193 37.27001 10994 ft 325 kts 135°
2026-04-25 09:29 37.08665 37.29077 10724 ft 320 kts 135°
2026-04-25 09:29 37.07173 37.31083 10594 ft 310 kts 136°
2026-04-25 09:29 37.05719 37.33034 10404 ft 303 kts 136°
2026-04-25 09:29 37.04294 37.34948 10117 ft 300 kts 136°
2026-04-25 09:30 37.02879 37.36852 9795 ft 298 kts 135°
2026-04-25 09:30 37.01477 37.38746 9434 ft 295 kts 135°
2026-04-25 09:30 37.00088 37.40625 9090 ft 293 kts 135°
2026-04-25 09:30 36.98710 37.42492 8748 ft 291 kts 135°
2026-04-25 09:31 36.97345 37.44341 8357 ft 286 kts 135°
2026-04-25 09:31 36.96000 37.46160 7730 ft 283 kts 134°
2026-04-25 09:31 36.94721 37.48018 7168 ft 279 kts 127°
2026-04-25 09:31 36.93579 37.49944 6510 ft 275 kts 127°
2026-04-25 09:32 36.92430 37.51859 6048 ft 276 kts 127°
2026-04-25 09:32 36.91287 37.53752 5869 ft 268 kts 127°
2026-04-25 09:32 36.90181 37.55585 5728 ft 260 kts 127°
2026-04-25 09:32 36.89108 37.57362 5632 ft 252 kts 127°
2026-04-25 09:33 36.88067 37.59090 5517 ft 245 kts 127°
2026-04-25 09:33 36.87056 37.60768 5404 ft 238 kts 127°
2026-04-25 09:33 36.86087 37.62395 5296 ft 230 kts 123°
2026-04-25 09:33 36.85581 37.64244 5183 ft 225 kts 93°
2026-04-25 09:34 36.85932 37.66103 5061 ft 221 kts 61°
2026-04-25 09:34 36.86991 37.67432 4966 ft 216 kts 30°
2026-04-25 09:34 36.88423 37.67894 4859 ft 214 kts 360°
2026-04-25 09:34 36.89827 37.67394 4743 ft 209 kts 329°
2026-04-25 09:35 36.90793 37.66132 4675 ft 199 kts 298°
2026-04-25 09:35 36.91212 37.64551 4623 ft 180 kts 285°
2026-04-25 09:35 36.91516 37.63123 4417 ft 165 kts 285°
2026-04-25 09:35 36.91807 37.61768 4229 ft 158 kts 285°
2026-04-25 09:36 36.92089 37.60459 4021 ft 155 kts 285°
2026-04-25 09:36 36.92368 37.59167 3821 ft 155 kts 287°
2026-04-25 09:36 36.92648 37.57869 3632 ft 156 kts 286°
2026-04-25 09:36 36.92635 37.56561 3543 ft 153 kts 251°
2026-04-25 09:37 36.92219 37.55348 3532 ft 152 kts 242°
2026-04-25 09:37 36.91733 37.54171 3514 ft 154 kts 240°
2026-04-25 09:37 36.91263 37.52976 3500 ft 153 kts 250°
2026-04-25 09:37 36.91246 37.51658 3537 ft 153 kts 278°
2026-04-25 09:38 36.91386 37.50747 3511 ft 150 kts 283°
2026-04-25 09:38 36.91628 37.49474 3505 ft 152 kts 284°
2026-04-25 09:38 36.91879 37.48195 3511 ft 150 kts 285°
2026-04-25 09:38 36.92128 37.46915 3513 ft 153 kts 285°
2026-04-25 09:39 36.92389 37.45628 3514 ft 152 kts 285°
2026-04-25 09:39 36.92638 37.44345 3502 ft 152 kts 283°
2026-04-25 09:39 36.92893 37.43058 3512 ft 152 kts 285°
2026-04-25 09:40 36.94228 37.41452 3522 ft 142 kts 14°
2026-04-25 09:40 36.95008 37.42112 3436 ft 139 kts 60°
2026-04-25 09:40 36.95432 37.43182 3049 ft 142 kts 72°
2026-04-25 09:40 36.95475 37.44406 2709 ft 141 kts 97°
2026-04-25 09:41 36.95296 37.45579 2438 ft 135 kts 103°
2026-04-25 09:41 36.95061 37.46708 2243 ft 132 kts 104°
2026-04-25 09:41 36.94864 37.47620 2225 ft 70 kts 106°
2026-04-25 09:41 36.94788 37.47973 2221 ft 33 kts 104°
2026-04-25 09:42 36.94729 37.48232 2225 ft 29 kts 105°
2026-04-25 09:42 36.94679 37.48468 2226 ft 27 kts 105°
2026-04-25 09:42 36.94633 37.48686 2225 ft 25 kts 106°
2026-04-25 09:42 36.94534 37.48858 2225 ft 24 kts 136°
2026-04-25 09:43 36.94436 37.48932 2225 ft 7 kts 208°
2026-04-25 09:43 36.94422 37.48872 2225 ft 13 kts 266°
2026-04-25 09:43 36.94457 37.48714 2225 ft 21 kts 284°
2026-04-25 09:43 36.94492 37.48548 2223 ft 19 kts 285°
2026-04-25 09:44 36.94527 37.48395 2223 ft 17 kts 285°
2026-04-25 09:44 36.94558 37.48248 2226 ft 21 kts 285°
2026-04-25 09:44 36.94603 37.48044 2223 ft 26 kts 284°
2026-04-25 09:44 36.94646 37.47843 2222 ft 13 kts 284°
2026-04-25 09:45 36.94596 37.47786 2224 ft 10 kts 197°
2026-04-25 09:45 36.94535 37.47767 2224 ft 8 kts 193°
2026-04-25 09:45 36.94497 37.47756 2222 ft 1 kts 193°
2026-04-25 09:45 36.94496 37.47755 2222 ft 0 kts 193°